Flag for United Kingdom Weather past 2 weeks in Londonderry, Northern Ireland, United Kingdom

Now
50 °F

Broken clouds.


Feels Like: 45 °F
Forecast: 42 / 50 °F
Wind: 14 mph from Southwest

Location: Eglinton / Londonderry

Current Time: Dec 18, 2014 at 12:50:33 PM

Latest Report: Dec 18, 2014 at 11:50 AM


Visibility: N/A

Pressure: 29.42 "Hg

Humidity: 94%

Dew point: 48 °F

Location of LondonderryLocation

Historic Weather in Londonderry — Graph

°F

Londonderry temperature yesterday

Maximum temperature yesterday: 54 °F (at 6:20 AM)
Minimum temperature yesterday: 52 °F (at 5:50 AM)
Average temperature yesterday: 53 °F

Past Weeks' High & Low Weather Summary

 TemperatureHumidityPressure
High54 °F (Dec 9, 11:50 AM)94% (Dec 6, 11:20 AM)30.33 "Hg (Dec 6, 11:20 AM)
Low34 °F (Dec 12, 6:20 AM)70% (Dec 11, 5:50 AM)29.24 "Hg (Dec 12, 5:50 AM)
Average43 °F86%29.77 "Hg
* Reported Dec 3 11:20 AM — Dec 18 11:50 AM, Londonderry, Weather by CustomWeather, © 2014

Note: Actual official high and low records may vary slightly from our data, if they occured in-between our weather recording intervals... More about our weather records

Advertising

Londonderry weather history for previous 24 hours

 ConditionsComfort  
Time TempWeatherWind HumidityBarometerVisibility
11:50 AM
Dec 18
50 °FBroken clouds.14 mph94%29.42 "HgN/A
11:20 AM50 °FBroken clouds.13 mph94%29.45 "HgN/A
10:20 AM48 °FLight rain. Broken clouds.12 mph94%29.42 "Hg4 mi
9:50 AM48 °FLight rain. Partly sunny.21 mph94%29.39 "Hg2 mi
9:20 AM54 °FLight rain. Broken clouds.24 mph94%29.36 "Hg4 mi
8:50 AM54 °FLight rain. More clouds than sun.23 mph94%29.36 "Hg4 mi
8:20 AM54 °FRain. Overcast.23 mph94%29.36 "Hg6 mi
7:50 AM54 °FLight rain. Overcast.20 mph94%29.36 "Hg6 mi
7:20 AM54 °FLight rain. Overcast.21 mph94%29.36 "Hg6 mi
6:50 AM54 °FLight rain. Mostly cloudy.20 mph94%29.36 "Hg6 mi
6:20 AM54 °FLight rain. Mostly cloudy.15 mph94%29.39 "Hg4 mi
5:50 AM54 °FRain showers. Mostly cloudy.18 mph88%29.39 "Hg4 mi
3:50 PM
Dec 17
54 °FBroken clouds.14 mph88%29.53 "Hg6 mi
3:20 PM54 °FScattered showers. Partly sunny.12 mph88%29.53 "HgN/A
2:50 PM54 °FScattered showers. Broken clouds.16 mph88%29.53 "HgN/A
2:20 PM54 °FLow clouds.16 mph88%29.53 "HgN/A
1:50 PM54 °FPartly sunny.15 mph94%29.53 "HgN/A
1:20 PM54 °FPartly sunny.15 mph94%29.53 "HgN/A
12:50 PM54 °FPartly sunny.15 mph94%29.53 "HgN/A
12:20 PM52 °FPartly sunny.15 mph94%29.53 "HgN/A
Weather by CustomWeather, © 2014

See weather overviewHow to use our weather pages